TimeAST,TemperatureF,Dew PointF,Humidity,Sea Level PressureIn,VisibilityMPH,Wind Direction,Wind SpeedMPH,Gust SpeedMPH,PrecipitationIn,Events,Conditions,WindDirDegrees,DateUTC
1:00 AM,75.2,71.6,89,29.89,6.2,East,11.5,-,N/A,,Scattered Clouds,90,2012-11-30 05:00:00
2:00 AM,74,71,87,29.91,19,SE,3.5,,,,Partly Cloudy,130,2012-11-30 06:00:00
2:00 AM,73.4,71.6,94,29.86,6.2,SE,3.5,-,N/A,,Scattered Clouds,130,2012-11-30 06:00:00
3:00 AM,73.4,73.4,100,29.86,6.2,SE,3.5,-,N/A,,Scattered Clouds,130,2012-11-30 07:00:00
4:00 AM,73.4,71.6,94,29.86,6.2,Variable,3.5,-,N/A,,Scattered Clouds,0,2012-11-30 08:00:00
5:00 AM,73.4,71.6,94,29.86,6.2,South,1.2,-,N/A,,Scattered Clouds,190,2012-11-30 09:00:00
6:00 AM,73.4,73.4,100,29.89,6.2,SE,2.3,-,N/A,,Scattered Clouds,140,2012-11-30 10:00:00
7:00 AM,73.4,73.4,100,29.89,6.2,SE,4.6,-,N/A,,Partly Cloudy,130,2012-11-30 11:00:00
8:00 AM,77,75,92,29.94,16,ENE,10.4,,,,Partly Cloudy,70,2012-11-30 12:00:00
8:00 AM,77.0,75.2,94,29.92,6.2,Variable,3.5,-,N/A,,Scattered Clouds,0,2012-11-30 12:00:00
9:00 AM,80.6,75.2,84,29.95,6.2,East,6.9,-,N/A,,Partly Cloudy,100,2012-11-30 13:00:00
10:00 AM,82.4,75.2,79,29.95,6.2,East,8.1,-,N/A,,Scattered Clouds,100,2012-11-30 14:00:00
11:00 AM,82,75,73,29.96,16,East,8.1,,,,Partly Cloudy,80,2012-11-30 15:00:00
11:00 AM,82.4,75.2,79,29.95,6.2,ENE,6.9,-,N/A,,Scattered Clouds,70,2012-11-30 15:00:00
12:00 PM,77.0,73.4,89,29.92,6.2,ESE,8.1,-,N/A,,Scattered Clouds,110,2012-11-30 16:00:00
1:00 PM,80.6,73.4,79,29.92,6.2,East,9.2,-,N/A,,Partly Cloudy,90,2012-11-30 17:00:00
2:00 PM,80.6,73.4,79,29.89,6.2,South,11.5,-,N/A,,Partly Cloudy,180,2012-11-30 18:00:00
3:00 PM,78.8,73.4,83,29.86,6.2,Variable,4.6,-,N/A,,Partly Cloudy,0,2012-11-30 19:00:00
5:00 PM,78.8,71.6,78,29.86,6.2,East,6.9,-,N/A,,Partly Cloudy,100,2012-11-30 21:00:00
6:00 PM,78.8,73.4,83,29.86,6.2,East,5.8,-,N/A,,Partly Cloudy,100,2012-11-30 22:00:00
7:00 PM,75.2,71.6,89,29.86,6.2,ESE,3.5,-,N/A,,Partly Cloudy,120,2012-11-30 23:00:00
8:00 PM,77.0,75.2,94,29.86,6.2,East,5.8,-,N/A,,Partly Cloudy,90,2012-12-01 00:00:00
9:00 PM,78.8,71.6,78,29.89,6.2,ENE,10.4,-,N/A,,Partly Cloudy,70,2012-12-01 01:00:00
10:00 PM,78.8,73.4,83,29.89,6.2,ENE,9.2,-,N/A,,Mostly Cloudy,70,2012-12-01 02:00:00
11:00 PM,78,73,80,29.91,19,ENE,10.4,,,,Scattered Clouds,60,2012-12-01 03:00:00
11:00 PM,78.8,73.4,83,29.89,6.2,ENE,10.4,-,N/A,,Partly Cloudy,60,2012-12-01 03:00:00